[[[{"header":{"parameterUnit":"kt","parameterCategory":2,"dx":1,"dy":1,"la1":30.253999710083008,"la2":30.299108505249023,"lo1":-89.0895004272461,"lo2":-89.04439544677734,"nx":28,"ny":28,"refTime":"2022-09-19T21:00:00:Z","depth":"0","parameterNumber":2,"parameterNumberName":"U-component_of_CURRENTS"},"data":[0.2864,0.3077,0.2995,0.2999,0.2961,0.2903,0.2887,0.2907,0.3057,0.3315,0.3608,0.3856,0.4668,0.5914,0.6584,0.6653,0.6231,0.617,0.6001,0.6224,0.6151,0.608,0.5855,0.6767,0.6766,0.5441,0.5432,0.5425,0.2514,0.254,0.2733,0.2815,0.281,0.2783,0.2895,0.2918,0.305,0.3381,0.364,0.4346,0.5094,0.5764,0.6561,0.6657,0.6274,0.6611,0.5782,0.5709,0.6099,0.59,0.6837,0.6837,0.6837,0.6837,0.6837,0.6837,0.1878,0.2088,0.221,0.2403,0.2508,0.254,0.2673,0.2816,0.3064,0.3364,0.3689,0.4051,0.485,0.5613,0.5849,0.6344,0.5781,0.608,0.5904,0.5371,0.5146,0.5426,0.6406,0.6404,0.6403,0.6402,0.64,0,0.1359,0.1367,0.1627,0.1821,0.2029,0.2217,0.2467,0.2631,0.2849,0.3143,0.354,0.3815,0.458,0.4988,0.5517,0.5585,0.5093,0.5436,0.5376,0.482,0.4259,0.4096,0.4027,0.5122,0.5113,0.5106,0.5101,0.5097,0.0643,0.0893,0.1134,0.1289,0.1443,0.1787,0.198,0.2167,0.2397,0.2889,0.3116,0.3654,0.3938,0.4599,0.4725,0.5041,0.4508,0.5214,0.4587,0.4547,0.4281,0.3687,0.358,0.4999,0.5012,0.5022,0.503,0,0.0251,0.0301,0.0734,0.0988,0.1061,0.1402,0.1675,0.1963,0.2198,0.2622,0.2757,0.3041,0.346,0.3529,0.3763,0.3671,0.3894,0.3975,0.4021,0.3992,0.4154,0.3934,0.4479,0.4463,0.4632,0.4644,0.4655,0,-0.0281,0.0052,0.0152,0.0398,0.0839,0.0914,0.1394,0.1581,0.1871,0.2186,0.2239,0.2522,0.2477,0.2771,0.263,0.2989,0.3028,0.2777,0.2756,0.27,0.2704,0.2835,0.262,0.2555,0.2547,0.254,0.2534,0,-0.0708,-0.0424,-0.0037,0.0073,0.0361,0.0597,0.0752,0.1033,0.1234,0.1616,0.1788,0.2072,0.2177,0.2281,0.2134,0.1815,0.2558,0.2069,0.2381,0.2396,0.2677,0.269,0.3422,0.2524,0.2522,0.2519,0.2516,0,-0.106,-0.0894,-0.0489,-0.0129,-0.0036,0.0131,0.0577,0.0715,0.0994,0.1048,0.1248,0.1179,0.1435,0.0967,0.1362,0.1064,0.1078,0.1009,0.1038,0.1353,0.096,0.1876,0.2468,0.2422,0.1202,0.119,0.1179,0,-0.1324,-0.1037,-0.1026,-0.0671,-0.0454,-0.0437,-0.0236,-0.0082,-0.0014,0.0254,0.0188,0.0355,0.0001,0.0047,0.0146,0.012,0.0395,-0.0101,0.052,0.0548,0.0796,0.128,0.1355,0.2238,0.1018,0.1034,0.1047,0,-0.1528,-0.1386,-0.1343,-0.1142,-0.1069,-0.0987,-0.0839,-0.0592,-0.0354,-0.0476,-0.0096,-0.0267,-0.0288,-0.0253,-0.0414,-0.0289,0.0121,-0.0453,-0.0444,0.0021,0.0806,0.1025,0.1155,-0.0076,-0.0059,-0.0045,0.0919,0,-0.1514,-0.1433,-0.1436,-0.1307,-0.127,-0.1188,-0.1154,-0.1111,-0.1129,-0.1055,-0.0908,-0.1064,-0.0888,-0.1067,-0.1158,-0.0828,-0.0779,-0.1007,-0.092,-0.0765,-0.0387,-0.0286,-0.1498,-0.15,-0.1501,-0.1502,0,0,-0.1588,-0.1512,-0.1641,-0.1561,-0.1459,-0.1569,-0.1404,-0.1428,-0.1416,-0.1278,-0.1473,-0.1348,-0.1466,-0.1212,-0.1251,-0.1404,-0.1194,-0.1228,-0.0954,-0.0895,-0.0838,-0.0464,-0.0366,-0.1505,-0.1506,-0.1506,-0.1506,0,-0.154,-0.1643,-0.1632,-0.1607,-0.1606,-0.1577,-0.158,-0.1573,-0.1547,-0.1514,-0.1529,-0.1535,-0.1573,-0.1485,-0.1462,-0.1443,-0.1266,-0.1548,-0.1206,-0.0982,-0.0921,-0.0865,-0.0487,-0.0397,-0.151,-0.151,-0.151,0,-0.1499,-0.1521,-0.1559,-0.1594,-0.1601,-0.1519,-0.1588,-0.1629,-0.1521,-0.1604,-0.1508,-0.1595,-0.159,-0.1567,-0.1566,-0.1554,-0.1246,-0.1538,-0.1533,-0.1268,-0.1024,-0.0961,-0.0904,-0.1594,-0.1594,-0.1594,0,0,-0.1445,-0.1505,-0.1498,-0.1578,-0.1578,-0.1575,-0.1598,-0.1595,-0.1601,-0.1609,-0.1591,-0.1588,-0.1583,-0.1563,-0.1583,-0.156,-0.1328,-0.1542,-0.1538,-0.1534,-0.1274,-0.1029,-0.0972,-0.1592,-0.1592,-0.1592,0,0,-0.1417,-0.1441,-0.1431,-0.1525,-0.1525,-0.1534,-0.1582,-0.1571,-0.1587,-0.1594,-0.1567,-0.1564,-0.157,-0.1574,-0.1559,-0.1538,-0.1566,-0.1569,-0.1488,-0.1484,-0.148,-0.1151,-0.1527,0,0,0,0,0,-0.135,-0.1433,-0.1423,-0.1439,-0.1508,-0.1533,-0.1541,-0.1555,-0.1553,-0.1575,-0.1568,-0.155,-0.156,-0.1546,-0.1547,-0.1504,-0.1576,-0.1579,-0.1581,-0.1479,-0.1475,-0.1471,0,0,0,0,0,0,-0.1356,-0.1373,-0.1421,-0.1435,-0.1451,-0.1531,-0.1512,-0.1517,-0.155,-0.155,-0.1552,-0.1549,-0.1531,-0.1545,-0.1545,-0.1504,-0.1526,-0.1577,-0.1579,-0.1582,-0.1478,-0.1474,-0.1471,0,0,0,0,0,-0.136,-0.1375,-0.1488,-0.1434,-0.1448,-0.1478,-0.1511,-0.1515,-0.1542,-0.1531,-0.153,-0.1554,-0.1532,-0.1532,-0.1545,-0.1503,-0.1526,-0.1526,-0.1578,-0.158,-0.1582,-0.1476,0,0,0,0,0,0,-0.1364,-0.1372,-0.149,-0.1494,-0.1424,-0.1474,-0.1483,-0.1513,-0.152,-0.1522,-0.153,-0.1529,-0.1533,-0.1532,-0.1532,-0.1502,-0.1525,-0.1526,-0.1526,-0.158,-0.1581,-0.1583,0,0,0,0,0,0,-0.1364,-0.1375,-0.1492,-0.1479,-0.1482,-0.147,-0.1479,-0.1485,-0.1519,-0.1517,-0.1518,-0.1529,-0.152,-0.1533,-0.1533,-0.1543,-0.1525,-0.1525,-0.1525,-0.1526,-0.1581,-0.1582,0,0,0,0,0,0,-0.1369,-0.1378,-0.1478,-0.148,-0.1482,-0.1529,-0.1473,-0.1535,-0.1539,-0.1515,-0.1536,-0.1535,-0.152,-0.152,-0.1533,-0.1543,-0.1543,-0.1525,-0.1525,-0.1525,-0.1525,0,0,0,0,0,0,0,-0.1373,-0.131,-0.1468,-0.1481,-0.1483,-0.1534,-0.1535,-0.1536,-0.1539,-0.1538,-0.1537,-0.1536,-0.1523,-0.1524,-0.1524,-0.1544,0,0,-0.1525,-0.1525,0,0,0,0,0,0,0,0,-0.1305,-0.1309,-0.1468,-0.1469,-0.147,-0.1534,-0.1535,-0.1536,-0.1538,-0.1538,-0.1537,-0.1536,-0.1523,-0.1524,-0.1524,0,0,0,0,0,0,0,0,0,0,0,0,0,0,0,-0.1468,-0.1469,0,-0.1534,-0.1535,-0.1535,-0.1538,-0.1538,-0.1537,-0.1536,-0.1523,-0.1524,-0.1524,0,0,0,0,0,0,0,0,0,0,0,0,0,0,0,0,0,0,0,0,0,0,0,0,0,0,0,0,0,0,0,0,0,0,0,0,0,0,0,0,0,0,0,0,0,0,0,0,0,0,0,0,0,0,0,0,0,0,0,0,0,0,0,0,0,0,0,0,0]}],[{"header":{"parameterUnit":"kt","parameterCategory":2,"dx":1,"dy":1,"la1":30.253999710083008,"la2":30.299108505249023,"lo1":-89.0895004272461,"lo2":-89.04439544677734,"nx":28,"ny":28,"refTime":"2022-09-19T21:00:00:Z","depth":"0","parameterNumber":3,"parameterNumberName":"V-component_of_CURRENTS"},"data":[0.112,0.1327,0.1401,0.174,0.1914,0.2162,0.2312,0.2531,0.2793,0.3277,0.3658,0.3965,0.3954,0.2387,0.1204,0.0789,0.0036,-0.0136,-0.0703,-0.0008,-0.0019,-0.003,0.0044,0.0057,0.0055,-0.1165,-0.1175,-0.1184,0.0994,0.1117,0.1363,0.1634,0.1841,0.1954,0.2266,0.2401,0.2638,0.2962,0.3142,0.3469,0.3029,0.2385,0.1582,0.0826,0.0341,0.0348,0.0124,-0.0039,0.0683,0.0804,0.0979,0.0979,0.098,0.098,0.098,0.098,0.0783,0.0939,0.1132,0.1387,0.1625,0.1878,0.2062,0.2285,0.2528,0.2733,0.2796,0.2922,0.2737,0.1922,0.1288,0.0574,0.0247,0.0404,0.0134,-0.0162,-0.0259,0.051,0.0514,0.051,0.0506,0.0502,0.0499,0,0.0597,0.0647,0.0869,0.1143,0.1369,0.1639,0.1895,0.2033,0.2196,0.2323,0.2471,0.2479,0.2073,0.1794,0.109,0.0688,-0.0011,0.0176,-0.0051,0.0216,-0.0017,-0.0259,0.0403,0.0493,0.0488,0.0485,0.0482,0.048,0.0313,0.0468,0.0774,0.0931,0.1086,0.1354,0.1535,0.1689,0.1839,0.1982,0.2069,0.1912,0.1893,0.1266,0.075,0.0217,-0.015,0.0087,0.0082,-0.0056,-0.0381,-0.0672,-0.0809,0.0429,0.0435,0.044,0.0445,0,0.0146,0.0293,0.0596,0.0867,0.0962,0.1161,0.1434,0.1578,0.1642,0.1807,0.1817,0.1716,0.147,0.1051,0.0594,0.0282,-0.0191,-0.0196,0.0215,0.0165,-0.0145,-0.0365,-0.0759,-0.0929,-0.039,-0.039,-0.039,0,0.0006,0.0219,0.0455,0.0614,0.0888,0.1003,0.1243,0.1334,0.1428,0.157,0.1426,0.1473,0.1053,0.0833,0.0493,0.0148,0.0131,-0.0136,-0.024,0.0072,0.0096,-0.0169,-0.0394,-0.0219,-0.0218,-0.0216,-0.0215,0,-0.0149,0.0146,0.0401,0.0498,0.0775,0.0888,0.101,0.1112,0.122,0.1236,0.1281,0.1116,0.1037,0.0755,0.0412,0.0366,0.0076,-0.0051,-0.0214,-0.0218,-0.006,-0.0048,-0.0042,-0.0214,-0.0213,-0.0213,-0.0212,0,-0.0212,-0.0032,0.0257,0.0535,0.0602,0.0727,0.0922,0.1019,0.1058,0.1063,0.1022,0.0888,0.0803,0.0657,0.0364,0.0391,0.018,0.0003,-0.0011,-0.0117,-0.0287,-0.0073,0.0118,-0.0051,-0.0233,-0.0232,-0.0231,0,-0.0337,-0.0062,0.0016,0.0275,0.044,0.0481,0.0603,0.0672,0.0699,0.0748,0.0635,0.0617,0.0473,0.043,0.0365,0.0104,0.007,0.0132,-0.0289,-0.03,-0.0262,-0.0123,0.0228,0.0117,-0.0221,-0.0222,-0.0223,0,-0.0449,-0.019,-0.0165,-0.0033,0.0097,0.018,0.0302,0.0402,0.0471,0.0453,0.0511,0.0436,0.0332,0.0262,0.0116,0.0067,0.0076,-0.0108,-0.0121,-0.0141,-0.0138,-0.0116,-0.0122,-0.005,-0.0049,-0.0049,-0.0215,0,-0.0416,-0.0304,-0.0236,-0.0104,-0.0039,0.0062,0.0102,0.0151,0.0145,0.0133,0.0131,0.0004,-0.0073,-0.0091,-0.0195,-0.0174,-0.0284,-0.0397,-0.0484,-0.0364,-0.046,-0.0465,-0.05,-0.0506,-0.0512,-0.0516,0,0,-0.0558,-0.0432,-0.043,-0.0325,-0.026,-0.0298,-0.0184,-0.0174,-0.0191,-0.0178,-0.0231,-0.035,-0.0438,-0.0446,-0.0399,-0.047,-0.0574,-0.0459,-0.0429,-0.0418,-0.0409,-0.0491,-0.0489,-0.0525,-0.0527,-0.0529,-0.053,0,-0.0556,-0.0532,-0.0455,-0.0407,-0.0358,-0.0351,-0.0328,-0.032,-0.0326,-0.0292,-0.0441,-0.0482,-0.0552,-0.0609,-0.0659,-0.0543,-0.0697,-0.0582,-0.0374,-0.047,-0.0451,-0.0437,-0.0512,-0.0507,-0.0543,-0.0542,-0.0541,0,-0.0632,-0.0601,-0.0579,-0.0521,-0.0509,-0.0427,-0.0539,-0.0497,-0.0443,-0.0641,-0.0592,-0.0702,-0.0835,-0.0811,-0.082,-0.0865,-0.0815,-0.0819,-0.0797,-0.0788,-0.0896,-0.0874,-0.0855,-0.1097,-0.1098,-0.1098,0,0,-0.0643,-0.059,-0.0575,-0.0528,-0.0499,-0.0535,-0.0533,-0.056,-0.0602,-0.0627,-0.0693,-0.0784,-0.085,-0.0865,-0.0941,-0.0911,-0.1021,-0.0872,-0.0846,-0.0823,-0.0801,-0.0902,-0.0882,-0.11,-0.11,-0.11,0,0,-0.0664,-0.063,-0.0649,-0.0589,-0.0571,-0.0597,-0.0571,-0.0621,-0.0671,-0.0691,-0.0818,-0.0844,-0.0854,-0.0942,-0.0949,-0.0928,-0.1057,-0.1057,-0.0805,-0.0775,-0.075,-0.0699,-0.1053,0,0,0,0,0,-0.068,-0.0624,-0.064,-0.0632,-0.0621,-0.0579,-0.0584,-0.0639,-0.07,-0.0671,-0.0768,-0.084,-0.0971,-0.098,-0.0998,-0.0902,-0.1119,-0.1115,-0.1112,-0.0788,-0.0755,-0.0727,0,0,0,0,0,0,-0.0677,-0.0664,-0.0642,-0.0659,-0.0658,-0.0583,-0.0681,-0.0696,-0.0704,-0.0714,-0.0821,-0.0844,-0.0923,-0.0977,-0.0992,-0.0897,-0.1049,-0.1117,-0.1114,-0.1112,-0.0777,-0.075,-0.0726,0,0,0,0,0,-0.0675,-0.0665,-0.0622,-0.0663,-0.0661,-0.0716,-0.0684,-0.0697,-0.0711,-0.0813,-0.0836,-0.075,-0.0919,-0.094,-0.0987,-0.0886,-0.1039,-0.1044,-0.1115,-0.1113,-0.1111,-0.0764,0,0,0,0,0,0,-0.0673,-0.0696,-0.0625,-0.0629,-0.0684,-0.0722,-0.0726,-0.0697,-0.0813,-0.0831,-0.0749,-0.0757,-0.0917,-0.0933,-0.0948,-0.0874,-0.1031,-0.1036,-0.1039,-0.1114,-0.1112,-0.111,0,0,0,0,0,0,-0.0701,-0.0697,-0.0627,-0.0651,-0.0658,-0.0727,-0.073,-0.0777,-0.0817,-0.0746,-0.0753,-0.0752,-0.0916,-0.0928,-0.094,-0.1009,-0.1024,-0.103,-0.1033,-0.1036,-0.1112,-0.1111,0,0,0,0,0,0,-0.0702,-0.0699,-0.0651,-0.0656,-0.0662,-0.0712,-0.0775,-0.0778,-0.078,-0.0742,-0.0787,-0.079,-0.091,-0.0923,-0.0934,-0.0997,-0.1006,-0.1025,-0.1028,-0.1031,-0.1032,0,0,0,0,0,0,0,-0.0702,-0.0695,-0.0597,-0.066,-0.0666,-0.066,-0.0662,-0.0664,-0.0781,-0.0783,-0.0786,-0.0789,-0.0995,-0.1,-0.1006,-0.0987,0,0,-0.1024,-0.1027,0,0,0,0,0,0,0,0,-0.0699,-0.0696,-0.0597,-0.0597,-0.0597,-0.0661,-0.0662,-0.0663,-0.0781,-0.0783,-0.0785,-0.0788,-0.0996,-0.1001,-0.1006,0,0,0,0,0,0,0,0,0,0,0,0,0,0,0,-0.0597,-0.0597,0,-0.0661,-0.0662,-0.0663,-0.0781,-0.0783,-0.0785,-0.0787,-0.0998,-0.1001,-0.1005,0,0,0,0,0,0,0,0,0,0,0,0,0,0,0,0,0,0,0,0,0,0,0,0,0,0,0,0,0,0,0,0,0,0,0,0,0,0,0,0,0,0,0,0,0,0,0,0,0,0,0,0,0,0,0,0,0,0,0,0,0,0,0,0,0,0,0,0,0]}]],[[{"header":{"parameterUnit":"kt","parameterCategory":2,"dx":1,"dy":1,"la1":30.253999710083008,"la2":30.299108505249023,"lo1":-89.0895004272461,"lo2":-89.04439544677734,"nx":28,"ny":28,"refTime":"2022-09-19T21:00:00:Z","depth":"2","parameterNumber":2,"parameterNumberName":"U-component_of_CURRENTS"},"data":[0.0495,0.0512,0.0555,0.0618,0.0713,0.076,0.0765,0.0751,0.0814,0.0827,0.0912,0.1035,0.1109,0.1033,0.1027,0.1046,0.121,0.0977,0.1196,0.1543,0.1588,0.1694,0.1511,0,0,0,0,0,0.0551,0.0605,0.0674,0.0765,0.0811,0.0911,0.0914,0.0902,0.0883,0.1009,0.107,0.0985,0.1022,0.1129,0.1129,0.1105,0.121,0.1082,0.1331,0.1379,0.1424,0.1276,0.0943,0.0942,0.0941,0.094,0,0,0.0643,0.0677,0.0756,0.0853,0.0933,0.0958,0.0986,0.1005,0.1029,0.1116,0.116,0.1233,0.1324,0.1314,0.1325,0.1363,0.1474,0.1568,0.1599,0.1633,0.1483,0.1324,0.121,0.1211,0.1212,0.1212,0.1213,0,0.0678,0.0737,0.0812,0.0917,0.0995,0.1069,0.1149,0.1156,0.1271,0.1332,0.1368,0.142,0.1497,0.1549,0.1604,0.1645,0.1962,0.1862,0.2191,0.2059,0.1918,0.1939,0.1949,0.1943,0.1948,0.1952,0.1955,0.1957,0.0676,0.0739,0.09,0.0949,0.1027,0.1154,0.1209,0.1351,0.1378,0.1528,0.1534,0.1679,0.1708,0.1854,0.1924,0.2035,0.2194,0.2,0.1996,0.2158,0.2176,0.2174,0.2169,0.2013,0.2006,0.2,0.1996,0,0.066,0.0743,0.0859,0.1009,0.1064,0.1159,0.129,0.1354,0.1499,0.1594,0.1662,0.1828,0.1933,0.2104,0.2351,0.2349,0.244,0.2408,0.2258,0.2248,0.2229,0.2213,0.225,0.224,0.2231,0.2224,0.2218,0,0.0653,0.0735,0.0862,0.0926,0.1049,0.1143,0.1277,0.1387,0.1521,0.1596,0.1778,0.1842,0.2117,0.2227,0.235,0.2367,0.2565,0.2387,0.2405,0.2358,0.2323,0.263,0.2611,0.2781,0.278,0.2779,0.2778,0,0.062,0.0741,0.0842,0.0889,0.1034,0.1111,0.1197,0.1351,0.1428,0.1641,0.1714,0.1932,0.2054,0.2219,0.233,0.2356,0.2536,0.2613,0.2417,0.2396,0.2345,0.2308,0.2777,0.2777,0.2777,0.2776,0.2776,0,0.0618,0.0688,0.0797,0.0935,0.0974,0.1044,0.1215,0.1298,0.1468,0.1559,0.1714,0.1834,0.2005,0.2015,0.2259,0.221,0.2319,0.2401,0.2411,0.2086,0.2081,0.2067,0.216,0.2489,0.2486,0.2484,0.2482,0,0.0593,0.0689,0.0741,0.0852,0.0926,0.1017,0.1096,0.1218,0.1329,0.1469,0.1608,0.1783,0.1811,0.193,0.2017,0.218,0.226,0.2165,0.2363,0.2366,0.2027,0.213,0.2059,0.2138,0.2453,0.2456,0.2458,0,0.0576,0.0695,0.0711,0.0777,0.0887,0.0952,0.1036,0.1169,0.1255,0.1388,0.1516,0.1708,0.1797,0.1866,0.1975,0.2056,0.2207,0.209,0.2095,0.2085,0.2447,0.2128,0.2118,0.23,0.2304,0.2307,0.2435,0,0.0624,0.0682,0.0704,0.079,0.0853,0.0926,0.1017,0.1106,0.1188,0.1265,0.1468,0.1597,0.1752,0.1822,0.1859,0.2029,0.2029,0.2063,0.1968,0.2097,0.2138,0.2156,0.1915,0.1913,0.1912,0.1911,0,0,0.0605,0.0664,0.0721,0.0767,0.0823,0.0909,0.0968,0.1028,0.117,0.1241,0.125,0.1527,0.1601,0.177,0.1825,0.1888,0.194,0.1811,0.2045,0.206,0.2073,0.2117,0.2136,0.1909,0.1908,0.1908,0.1908,0,0.0621,0.0669,0.0697,0.0758,0.085,0.0897,0.0932,0.1031,0.1084,0.1212,0.1288,0.1427,0.1565,0.1642,0.1696,0.1863,0.1849,0.1918,0.1907,0.2032,0.2048,0.2063,0.2109,0.2127,0.1905,0.1905,0.1905,0,0.063,0.0673,0.0692,0.0778,0.0826,0.088,0.0907,0.0978,0.1033,0.1086,0.1197,0.1305,0.1395,0.1525,0.159,0.1542,0.1748,0.1688,0.1698,0.1643,0.1765,0.1786,0.1804,0.1559,0.1557,0.1556,0,0,0.064,0.0673,0.0751,0.0783,0.0817,0.0886,0.0924,0.0962,0.1041,0.1079,0.1146,0.1234,0.1342,0.1387,0.1477,0.1586,0.1594,0.1642,0.1659,0.1672,0.1626,0.175,0.1771,0.155,0.155,0.155,0,0,0.0637,0.0705,0.0733,0.0767,0.0839,0.0894,0.0923,0.0965,0.1056,0.1068,0.1109,0.1129,0.1279,0.1295,0.122,0.1429,0.1368,0.1385,0.1391,0.1412,0.1428,0.1345,0.1154,0,0,0,0,0,0.0684,0.0699,0.0723,0.0737,0.0814,0.0888,0.0901,0.0935,0.0947,0.0983,0.1066,0.1033,0.1271,0.1204,0.1222,0.1281,0.1477,0.149,0.1502,0.154,0.1562,0.158,0,0,0,0,0,0,0.0689,0.0704,0.0723,0.0775,0.0793,0.0885,0.0867,0.0878,0.0943,0.0946,0.1022,0.1034,0.1043,0.1193,0.121,0.1266,0.1148,0.1482,0.1493,0.1503,0.1547,0.1565,0.1581,0,0,0,0,0,0.0694,0.0706,0.0817,0.0775,0.0791,0.0848,0.0866,0.0875,0.0932,0.0973,0.0986,0.0962,0.1042,0.106,0.1203,0.1258,0.1136,0.1142,0.1489,0.1498,0.1506,0.1556,0,0,0,0,0,0,0.0698,0.0713,0.0821,0.0828,0.0767,0.0845,0.0856,0.0872,0.0957,0.0969,0.0909,0.091,0.1042,0.1056,0.107,0.1257,0.1126,0.1133,0.1137,0.1496,0.1503,0.1509,0,0,0,0,0,0,0.0707,0.0718,0.0825,0.0811,0.0817,0.0842,0.0851,0.092,0.0958,0.0888,0.0891,0.0909,0.1033,0.1053,0.1064,0.117,0.1119,0.1125,0.1129,0.1132,0.1502,0.1507,0,0,0,0,0,0,0.0713,0.0722,0.081,0.0814,0.0819,0.09,0.0905,0.0987,0.0928,0.0884,0.0927,0.0926,0.1031,0.1042,0.106,0.116,0.1167,0.1119,0.1123,0.1126,0.1128,0,0,0,0,0,0,0,0.0717,0.0639,0.0782,0.0816,0.0821,0.0896,0.0897,0.0899,0.0928,0.0927,0.0927,0.0926,0.1083,0.109,0.1097,0.1153,0,0,0.1118,0.1121,0,0,0,0,0,0,0,0,0.0637,0.0639,0.0783,0.0784,0.0786,0.0896,0.0897,0.0899,0.0928,0.0927,0.0927,0.0926,0.1085,0.1091,0.1096,0,0,0,0,0,0,0,0,0,0,0,0,0,0,0,0.0783,0.0784,0,0.0896,0.0897,0.0898,0.0928,0.0927,0.0927,0.0927,0.1087,0.1091,0.1096,0,0,0,0,0,0,0,0,0,0,0,0,0,0,0,0,0,0,0,0,0,0,0,0,0,0,0,0,0,0,0,0,0,0,0,0,0,0,0,0,0,0,0,0,0,0,0,0,0,0,0,0,0,0,0,0,0,0,0,0,0,0,0,0,0,0,0,0,0]}],[{"header":{"parameterUnit":"kt","parameterCategory":2,"dx":1,"dy":1,"la1":30.253999710083008,"la2":30.299108505249023,"lo1":-89.0895004272461,"lo2":-89.04439544677734,"nx":28,"ny":28,"refTime":"2022-09-19T21:00:00:Z","depth":"2","parameterNumber":3,"parameterNumberName":"V-component_of_CURRENTS"},"data":[0.0084,0.0253,0.0323,0.0523,0.0671,0.0778,0.0798,0.0693,0.0628,0.0457,0.0382,0.0116,-0.0169,-0.0384,-0.0683,-0.0775,-0.0698,-0.0795,-0.0691,-0.0569,-0.0543,-0.0692,-0.0636,0,0,0,0,0,0.0011,0.0132,0.0312,0.0525,0.0637,0.0741,0.0796,0.077,0.0712,0.0656,0.0523,0.0172,-0.0215,-0.0367,-0.0632,-0.0865,-0.0842,-0.086,-0.0794,-0.0774,-0.0754,-0.0728,-0.0964,-0.0963,-0.0962,-0.0962,0,0,-0.0114,0.0013,0.0206,0.0423,0.0582,0.0661,0.0737,0.0782,0.0798,0.0767,0.0676,0.0494,0.021,-0.0265,-0.0483,-0.0597,-0.0603,-0.0674,-0.0662,-0.0648,-0.0623,-0.0612,-0.0827,-0.0826,-0.0825,-0.0824,-0.0823,0,-0.0206,-0.0113,0.0064,0.029,0.0459,0.0614,0.0772,0.0811,0.0904,0.0904,0.0835,0.0704,0.043,0.0082,-0.0211,-0.039,-0.0354,-0.0458,-0.025,-0.0409,-0.0394,-0.0403,-0.038,-0.0571,-0.0568,-0.0566,-0.0565,-0.0564,-0.0332,-0.0214,0.0068,0.019,0.0322,0.054,0.0655,0.0785,0.0844,0.0909,0.0909,0.0818,0.0652,0.0322,0.0092,-0.0197,-0.0111,-0.0388,-0.0399,-0.0189,-0.0203,-0.0185,-0.0169,-0.0536,-0.054,-0.0543,-0.0545,0,-0.0392,-0.0278,-0.005,0.0188,0.0266,0.0433,0.0639,0.0732,0.0812,0.0885,0.0898,0.0845,0.0679,0.0531,0.031,0.0165,-0.003,-0.01,-0.0142,-0.0179,-0.0159,-0.0146,-0.0329,-0.0332,-0.0335,-0.0337,-0.034,0,-0.0445,-0.0297,-0.0093,0.0019,0.0227,0.035,0.0533,0.0625,0.0712,0.0782,0.0765,0.0764,0.0627,0.0517,0.037,0.0158,0.0177,0.0017,-0.0017,-0.006,-0.0067,0.0106,0.0114,0.0051,0.0052,0.0054,0.0055,0,-0.0516,-0.0304,-0.0133,-0.0055,0.0169,0.0276,0.0386,0.0505,0.0592,0.0654,0.0699,0.0644,0.0643,0.0498,0.0379,0.0383,0.0197,0.0188,0.0043,0.0038,-0.0077,-0.0089,0.0056,0.0057,0.0057,0.0057,0.0058,0,-0.0535,-0.0409,-0.0223,0.0005,0.0067,0.0162,0.0359,0.044,0.0522,0.0578,0.0604,0.0607,0.0575,0.0554,0.0407,0.0456,0.0367,0.0307,0.0299,0.0216,0.0208,0.0004,-0.007,0.0208,0.021,0.0211,0.0213,0,-0.0579,-0.0411,-0.0336,-0.0156,-0.0024,0.0086,0.0163,0.0279,0.0365,0.0451,0.0465,0.0536,0.0514,0.0563,0.0509,0.046,0.0399,0.0477,0.0294,0.0288,0.0236,0.0195,0.0124,-0.0034,0.0236,0.0233,0.0232,0,-0.0611,-0.042,-0.0395,-0.0275,-0.0121,-0.0031,0.0051,0.019,0.0274,0.0354,0.0438,0.0484,0.051,0.0522,0.0539,0.0499,0.0433,0.0471,0.0467,0.0398,0.0287,0.0233,0.0212,0.042,0.0418,0.0416,0.0249,0,-0.0524,-0.043,-0.04,-0.0263,-0.0183,-0.0083,0.0029,0.0116,0.021,0.028,0.037,0.0405,0.0467,0.0487,0.0496,0.0495,0.0464,0.0461,0.0438,0.0443,0.037,0.0357,0.0505,0.0504,0.0503,0.0503,0,0,-0.0539,-0.0451,-0.0383,-0.0305,-0.0217,-0.0112,-0.0017,0.0041,0.0185,0.0244,0.0266,0.0373,0.0405,0.0448,0.047,0.0483,0.0433,0.0491,0.0454,0.0449,0.0444,0.0374,0.0362,0.0501,0.0501,0.0501,0.0501,0,-0.0506,-0.0441,-0.0403,-0.0321,-0.0184,-0.0113,-0.0077,0.0065,0.0133,0.0227,0.0267,0.0321,0.0393,0.0418,0.0432,0.0471,0.0431,0.049,0.0507,0.045,0.0446,0.0442,0.0373,0.0363,0.0499,0.0499,0.0499,0,-0.0472,-0.0401,-0.0384,-0.0266,-0.0188,-0.0107,-0.005,0.0045,0.0113,0.0154,0.0258,0.0294,0.0317,0.0373,0.0401,0.0394,0.041,0.0447,0.0451,0.0433,0.0371,0.0368,0.0365,0.04,0.04,0.04,0,0,-0.0438,-0.0404,-0.0282,-0.025,-0.0198,-0.0087,-0.0036,0.0041,0.0119,0.0159,0.0222,0.0273,0.0304,0.0338,0.0367,0.0412,0.0361,0.0437,0.0441,0.0445,0.0431,0.037,0.0367,0.04,0.04,0.04,0,0,-0.0429,-0.0317,-0.0268,-0.0223,-0.0132,-0.0028,0.001,0.0076,0.0153,0.0179,0.0223,0.0238,0.0301,0.031,0.0299,0.0375,0.0353,0.0356,0.0385,0.0391,0.0395,0.0373,0.0312,0,0,0,0,0,-0.0346,-0.0335,-0.0292,-0.027,-0.014,-0.0053,-0.0033,0.006,0.0103,0.0136,0.0196,0.0211,0.0313,0.0304,0.0314,0.035,0.0392,0.0394,0.0395,0.0442,0.0448,0.0453,0,0,0,0,0,0,-0.0337,-0.0313,-0.0292,-0.0194,-0.0162,-0.0054,-0.0008,0.0017,0.0102,0.0115,0.0199,0.0211,0.0236,0.0301,0.0309,0.0344,0.0309,0.0393,0.0394,0.0395,0.0444,0.0449,0.0453,0,0,0,0,0,-0.0329,-0.0309,-0.0125,-0.0192,-0.0165,-0.0039,-0.0007,0.0014,0.009,0.0145,0.0163,0.0164,0.0234,0.0245,0.0306,0.034,0.0304,0.0307,0.0394,0.0394,0.0395,0.0446,0,0,0,0,0,0,-0.0323,-0.0292,-0.0117,-0.0105,-0.0181,-0.0042,-0.0018,0.0011,0.0117,0.0136,0.0105,0.0113,0.0232,0.0241,0.025,0.0338,0.0299,0.0302,0.0304,0.0394,0.0395,0.0395,0,0,0,0,0,0,-0.0301,-0.0283,-0.0111,-0.0102,-0.0088,-0.0044,-0.0023,0.0001,0.0115,0.007,0.0081,0.0107,0.0207,0.0238,0.0245,0.028,0.0296,0.0299,0.0301,0.0302,0.0395,0.0395,0,0,0,0,0,0,-0.0292,-0.0276,-0.0105,-0.0094,-0.0082,0.0062,-0.0023,0.0098,0.0152,0.0062,0.0157,0.0159,0.0202,0.0211,0.0241,0.0273,0.0278,0.0296,0.0298,0.03,0.03,0,0,0,0,0,0,0,-0.0284,-0.0417,-0.0187,-0.0088,-0.0077,0.0011,0.0014,0.0017,0.0152,0.0154,0.0156,0.0158,0.028,0.0283,0.0286,0.0267,0,0,0.0296,0.0297,0,0,0,0,0,0,0,0,-0.0421,-0.0418,-0.0187,-0.0184,-0.0181,0.0011,0.0014,0.0016,0.0152,0.0154,0.0156,0.0157,0.0281,0.0283,0.0286,0,0,0,0,0,0,0,0,0,0,0,0,0,0,0,-0.0186,-0.0184,0,0.0011,0.0013,0.0015,0.0153,0.0154,0.0155,0.0157,0.0282,0.0284,0.0286,0,0,0,0,0,0,0,0,0,0,0,0,0,0,0,0,0,0,0,0,0,0,0,0,0,0,0,0,0,0,0,0,0,0,0,0,0,0,0,0,0,0,0,0,0,0,0,0,0,0,0,0,0,0,0,0,0,0,0,0,0,0,0,0,0,0,0,0,0]}]],[[{"header":{"parameterUnit":"kt","parameterCategory":2,"dx":1,"dy":1,"la1":30.253999710083008,"la2":30.299108505249023,"lo1":-89.0895004272461,"lo2":-89.04439544677734,"nx":28,"ny":28,"refTime":"2022-09-19T21:00:00:Z","depth":"4","parameterNumber":2,"parameterNumberName":"U-component_of_CURRENTS"},"data":[-0.0238,-0.021,-0.0184,-0.0107,-0.0059,-0.0,0.004,0.0077,0.0129,0.0178,0.0226,0.027,0.0351,0.0322,0.0442,0.0458,0.039,0.0556,0.0557,0.0422,0.0411,0.0401,0.0401,0,0,0,0,0,-0.0241,-0.0221,-0.0183,-0.0117,-0.0075,-0.0042,0.0014,0.0043,0.0099,0.0165,0.0199,0.0266,0.0361,0.0393,0.0448,0.0448,0.0431,0.0513,0.0395,0.0415,0.0403,0.0406,0,0,0,0,0,0,-0.0246,-0.0226,-0.0191,-0.0143,-0.01,-0.0042,-0.0014,0.0054,0.0102,0.0186,0.0209,0.028,0.0314,0.0392,0.0417,0.0457,0.0437,0.0414,0.0403,0.0392,0.0397,0.042,0.0532,0,0,0,0,0,-0.0245,-0.0235,-0.0198,-0.015,-0.0112,-0.0061,-0.0007,0.0024,0.0092,0.0114,0.02,0.0255,0.0324,0.0356,0.0406,0.0398,0.0333,0.0369,0.0361,0.0295,0.0307,0.0299,0.0288,0.0358,0.0357,0.0356,0.0355,0,-0.0256,-0.0237,-0.0175,-0.0149,-0.012,-0.0068,-0.0036,0.0018,0.0055,0.0129,0.0153,0.0214,0.0243,0.0318,0.0312,0.0336,0.0322,0.0339,0.0269,0.0287,0.0284,0.0276,0.0269,0.0345,0.0346,0.0347,0.0348,0,-0.0262,-0.0236,-0.0187,-0.0124,-0.0105,-0.0068,-0.0009,0.0024,0.0066,0.0113,0.0126,0.0168,0.0207,0.0212,0.0209,0.0213,0.0226,0.0245,0.0153,0.0149,0.0253,0.025,0.033,0.0333,0.0336,0.0339,0.0341,0,-0.0259,-0.0228,-0.018,-0.0156,-0.0106,-0.0066,-0.0017,0.0018,0.0061,0.0097,0.0113,0.0139,0.0124,0.0142,0.012,0.016,0.0124,0.0155,0.016,0.0043,0.0041,0.0062,0.0061,0.0064,0.0063,0.0063,0.0063,0,-0.027,-0.0217,-0.0183,-0.0164,-0.0103,-0.0076,-0.0045,0.0001,0.003,0.0072,0.0096,0.0105,0.011,0.0099,0.009,0.0067,0.0097,0.0057,0.013,0.0136,0.0059,0.0059,0.0062,0.0062,0.0062,0.0062,0.0062,0,-0.0267,-0.0236,-0.0199,-0.0137,-0.0121,-0.01,-0.0039,-0.0015,0.0025,0.0046,0.0064,0.0069,0.0067,0.0043,0.0041,0.0035,0.0029,0.0018,0.0019,0.0119,0.0111,0.006,0.0033,0.0033,0.0032,0.0032,0.0031,0,-0.0267,-0.0233,-0.0218,-0.0176,-0.0145,-0.0115,-0.0092,-0.0057,-0.003,0.0005,0.0,0.0019,-0.0002,0.0005,-0.0002,-0.0011,-0.0006,-0.0025,0.0019,0.0021,0.0113,0.0111,-0.0023,0.0025,0.0026,0.0027,0.0027,0,-0.0272,-0.0236,-0.0232,-0.0204,-0.0168,-0.0142,-0.0121,-0.0079,-0.005,-0.0038,-0.0,-0.0018,-0.0009,-0.0002,-0.001,-0.0012,-0.0015,-0.0007,-0.0007,0.003,0.0009,0.0093,0.0105,-0.0025,-0.0024,-0.0024,0.0023,0,-0.025,-0.0234,-0.0228,-0.0198,-0.0177,-0.0154,-0.0122,-0.0103,-0.0079,-0.0051,-0.0037,-0.0035,-0.0008,-0.0031,-0.002,-0.0025,-0.0008,-0.0018,0.0023,-0.0007,0.0016,0.0019,-0.0009,-0.0009,-0.0008,-0.0008,0,0,-0.0248,-0.0234,-0.022,-0.0202,-0.0178,-0.015,-0.0127,-0.0106,-0.006,-0.0039,-0.0036,-0.0009,-0.0003,0.0008,-0.0006,-0.0014,0.0004,0.0029,-0.0004,-0.0004,-0.0003,0.0017,0.0019,-0.0007,-0.0007,-0.0006,-0.0006,0,-0.0238,-0.0229,-0.0226,-0.0204,-0.0168,-0.014,-0.0137,-0.0089,-0.0065,-0.0042,-0.0023,-0.0022,0.001,0.0021,0.003,-0.0005,0.0036,-0.0013,-0.0001,-0.0,-0.0001,-0.0001,0.0019,0.002,-0.0005,-0.0005,-0.0005,0,-0.0227,-0.0209,-0.0209,-0.0177,-0.0148,-0.0125,-0.0096,-0.0069,-0.0048,-0.001,0.0022,0.0028,0.0048,0.0055,0.0058,0.0077,0.0075,0.0068,0.0065,0.0092,0.0095,0.0093,0.0092,0.0116,0.0117,0.0117,0,0,-0.0216,-0.0215,-0.0176,-0.017,-0.0157,-0.0111,-0.0093,-0.0063,-0.0028,-0.0011,0.0024,0.0047,0.0055,0.0073,0.0085,0.0093,0.0115,0.0084,0.0078,0.0073,0.0097,0.0099,0.0097,0.0119,0.0119,0.0119,0,0,-0.0203,-0.0173,-0.0161,-0.0152,-0.0123,-0.0068,-0.0055,-0.0031,0.0002,0.0009,0.0053,0.0064,0.0068,0.0088,0.0106,0.01,0.0121,0.0119,0.0101,0.0094,0.0088,0.0116,0.015,0,0,0,0,0,-0.0179,-0.0182,-0.0172,-0.0165,-0.0113,-0.008,-0.0071,-0.0024,-0.0007,0.0001,0.0033,0.0063,0.0102,0.012,0.0127,0.0118,0.0141,0.0137,0.0133,0.0111,0.0103,0.0097,0,0,0,0,0,0,-0.0176,-0.0169,-0.0171,-0.0121,-0.0109,-0.008,-0.0043,-0.003,-0.0006,0.0001,0.0055,0.0064,0.0098,0.0119,0.0125,0.0115,0.0148,0.0139,0.0136,0.0133,0.0108,0.0102,0.0097,0,0,0,0,0,-0.0174,-0.0168,-0.01,-0.012,-0.0109,-0.005,-0.0042,-0.0031,-0.0008,0.0042,0.0053,0.0026,0.0097,0.0105,0.0123,0.0112,0.0144,0.0147,0.0137,0.0135,0.0132,0.0105,0,0,0,0,0,0,-0.0172,-0.015,-0.0096,-0.009,-0.0115,-0.005,-0.004,-0.0032,0.0034,0.0044,0.0014,0.0018,0.0096,0.0103,0.0109,0.0108,0.0141,0.0143,0.0145,0.0135,0.0133,0.0131,0,0,0,0,0,0,-0.0153,-0.0146,-0.0093,-0.0089,-0.0083,-0.005,-0.0041,-0.0022,0.0033,0.0003,0.0008,0.0015,0.0082,0.0101,0.0106,0.0135,0.0139,0.0141,0.0142,0.0143,0.0134,0.0132,0,0,0,0,0,0,-0.0149,-0.0143,-0.009,-0.0085,-0.0079,-0.0011,-0.0032,0.0017,0.0042,-0.0001,0.0044,0.0045,0.0078,0.0085,0.0103,0.013,0.0134,0.0139,0.014,0.0141,0.0142,0,0,0,0,0,0,0,-0.0146,-0.0202,-0.0132,-0.0082,-0.0076,-0.0039,-0.0037,-0.0035,0.0042,0.0043,0.0044,0.0045,0.0126,0.0129,0.0131,0.0126,0,0,0.0138,0.0139,0,0,0,0,0,0,0,0,-0.0203,-0.0202,-0.0132,-0.0131,-0.013,-0.0039,-0.0037,-0.0036,0.0042,0.0043,0.0044,0.0044,0.0127,0.0129,0.0131,0,0,0,0,0,0,0,0,0,0,0,0,0,0,0,-0.0132,-0.0131,0,-0.0038,-0.0037,-0.0036,0.0042,0.0043,0.0043,0.0044,0.0127,0.0129,0.0131,0,0,0,0,0,0,0,0,0,0,0,0,0,0,0,0,0,0,0,0,0,0,0,0,0,0,0,0,0,0,0,0,0,0,0,0,0,0,0,0,0,0,0,0,0,0,0,0,0,0,0,0,0,0,0,0,0,0,0,0,0,0,0,0,0,0,0,0,0]}],[{"header":{"parameterUnit":"kt","parameterCategory":2,"dx":1,"dy":1,"la1":30.253999710083008,"la2":30.299108505249023,"lo1":-89.0895004272461,"lo2":-89.04439544677734,"nx":28,"ny":28,"refTime":"2022-09-19T21:00:00:Z","depth":"4","parameterNumber":3,"parameterNumberName":"V-component_of_CURRENTS"},"data":[-0.0523,-0.0556,-0.0559,-0.0603,-0.0625,-0.0672,-0.0698,-0.0716,-0.0707,-0.0724,-0.0731,-0.0752,-0.0779,-0.078,-0.0812,-0.0824,-0.0855,-0.0914,-0.0914,-0.0981,-0.0986,-0.099,-0.0978,0,0,0,0,0,-0.0504,-0.0522,-0.0558,-0.0594,-0.0636,-0.0659,-0.0708,-0.0728,-0.0754,-0.0746,-0.0756,-0.0775,-0.08,-0.0825,-0.0826,-0.0889,-0.0936,-0.0892,-0.0948,-0.0984,-0.0989,-0.0975,0,0,0,0,0,0,-0.0475,-0.05,-0.0525,-0.0564,-0.0613,-0.0651,-0.0681,-0.0708,-0.074,-0.078,-0.078,-0.0817,-0.0849,-0.0869,-0.0893,-0.0906,-0.0914,-0.0917,-0.0925,-0.0931,-0.0909,-0.0873,-0.0823,0,0,0,0,0,-0.0446,-0.0457,-0.0489,-0.053,-0.0574,-0.063,-0.0684,-0.0702,-0.0761,-0.0799,-0.0811,-0.0835,-0.0869,-0.0906,-0.0923,-0.095,-0.1025,-0.1013,-0.1016,-0.1029,-0.101,-0.1013,-0.1015,-0.1009,-0.101,-0.101,-0.101,0,-0.0408,-0.0426,-0.0475,-0.0503,-0.0528,-0.0593,-0.0638,-0.0695,-0.0737,-0.0803,-0.0828,-0.0876,-0.0917,-0.0936,-0.0993,-0.1019,-0.1023,-0.1026,-0.104,-0.1019,-0.102,-0.1021,-0.1021,-0.1015,-0.1014,-0.1014,-0.1014,0,-0.0393,-0.04,-0.0446,-0.0496,-0.0515,-0.0565,-0.0638,-0.069,-0.0742,-0.0807,-0.083,-0.0897,-0.0936,-0.0981,-0.1037,-0.1042,-0.1064,-0.1058,-0.1085,-0.1087,-0.1029,-0.1028,-0.1022,-0.102,-0.1019,-0.1018,-0.1017,0,-0.0368,-0.0402,-0.0424,-0.0448,-0.0508,-0.0548,-0.0623,-0.0673,-0.0741,-0.0795,-0.0852,-0.0895,-0.0967,-0.1004,-0.1037,-0.1054,-0.108,-0.1066,-0.1066,-0.1108,-0.1107,-0.1076,-0.1071,-0.1122,-0.1122,-0.1122,-0.1122,0,-0.0353,-0.0384,-0.0416,-0.0436,-0.0498,-0.0534,-0.058,-0.0662,-0.0714,-0.0797,-0.0842,-0.0909,-0.0955,-0.0991,-0.1042,-0.1053,-0.1093,-0.1105,-0.1072,-0.1069,-0.1074,-0.1069,-0.1122,-0.1122,-0.1122,-0.1122,-0.1122,0,-0.0341,-0.0358,-0.0385,-0.0453,-0.0471,-0.0498,-0.0602,-0.0645,-0.0729,-0.0786,-0.0851,-0.0903,-0.096,-0.0978,-0.1037,-0.1041,-0.1063,-0.1087,-0.1087,-0.1011,-0.1007,-0.1002,-0.1086,-0.1086,-0.1085,-0.1085,-0.1085,0,-0.0351,-0.0362,-0.0372,-0.0419,-0.0449,-0.0507,-0.0549,-0.0615,-0.0688,-0.0762,-0.0824,-0.0896,-0.0924,-0.0975,-0.1002,-0.1051,-0.1064,-0.1057,-0.1049,-0.1048,-0.0982,-0.1046,-0.1085,-0.1082,-0.1083,-0.1083,-0.1083,0,-0.0355,-0.0374,-0.0381,-0.0409,-0.046,-0.049,-0.0539,-0.0603,-0.0649,-0.0736,-0.0795,-0.0884,-0.0928,-0.0944,-0.0985,-0.1007,-0.1057,-0.102,-0.1019,-0.0993,-0.1091,-0.1047,-0.1045,-0.1083,-0.1083,-0.1084,-0.1081,0,-0.0355,-0.0379,-0.039,-0.0415,-0.0444,-0.048,-0.0524,-0.0582,-0.0646,-0.0683,-0.0782,-0.0837,-0.0892,-0.0933,-0.0945,-0.1,-0.0995,-0.0994,-0.093,-0.0995,-0.0988,-0.099,-0.0947,-0.0945,-0.0944,-0.0943,0,0,-0.037,-0.0381,-0.0406,-0.0412,-0.0439,-0.0488,-0.0505,-0.0539,-0.0608,-0.0647,-0.0671,-0.0787,-0.0813,-0.0861,-0.0905,-0.0927,-0.0931,-0.0895,-0.0976,-0.098,-0.0984,-0.0979,-0.0982,-0.0941,-0.0941,-0.094,-0.094,0,-0.0358,-0.0398,-0.0398,-0.042,-0.0458,-0.0477,-0.0493,-0.0539,-0.0573,-0.064,-0.0666,-0.0729,-0.079,-0.0808,-0.082,-0.0909,-0.0875,-0.0942,-0.0951,-0.0967,-0.0972,-0.0977,-0.0974,-0.0978,-0.0937,-0.0937,-0.0937,0,-0.0358,-0.0373,-0.0383,-0.0416,-0.044,-0.0454,-0.0465,-0.05,-0.0524,-0.0537,-0.0604,-0.065,-0.0667,-0.0731,-0.076,-0.073,-0.081,-0.0799,-0.0806,-0.0773,-0.0785,-0.0793,-0.08,-0.0704,-0.0703,-0.0702,0,0,-0.0351,-0.0366,-0.039,-0.0416,-0.0429,-0.0455,-0.047,-0.0487,-0.0519,-0.0537,-0.0569,-0.0605,-0.0641,-0.0659,-0.0693,-0.074,-0.0714,-0.0771,-0.0782,-0.0791,-0.0764,-0.0778,-0.0786,-0.0699,-0.0699,-0.0699,0,0,-0.0344,-0.0363,-0.0381,-0.0404,-0.043,-0.0445,-0.0463,-0.0477,-0.0518,-0.0533,-0.0537,-0.0543,-0.0614,-0.0608,-0.0571,-0.067,-0.0625,-0.0633,-0.0667,-0.0681,-0.0691,-0.0649,-0.0528,0,0,0,0,0,-0.0346,-0.0359,-0.0375,-0.0382,-0.0418,-0.0441,-0.0446,-0.0461,-0.0472,-0.0488,-0.0525,-0.0501,-0.0597,-0.0564,-0.0568,-0.0606,-0.0661,-0.0668,-0.0674,-0.0731,-0.0745,-0.0758,0,0,0,0,0,0,-0.0349,-0.0357,-0.0374,-0.039,-0.0398,-0.0441,-0.0435,-0.044,-0.047,-0.0472,-0.0497,-0.05,-0.0496,-0.0559,-0.0564,-0.06,-0.0527,-0.0664,-0.067,-0.0675,-0.0736,-0.0748,-0.0758,0,0,0,0,0,-0.0351,-0.0358,-0.0415,-0.039,-0.0397,-0.042,-0.0435,-0.0439,-0.0468,-0.0472,-0.0476,-0.0482,-0.0495,-0.0501,-0.0562,-0.0599,-0.0523,-0.0525,-0.0668,-0.0672,-0.0676,-0.0742,0,0,0,0,0,0,-0.0353,-0.0359,-0.0416,-0.0419,-0.0389,-0.0418,-0.0424,-0.0438,-0.0467,-0.0471,-0.0454,-0.0455,-0.0495,-0.0499,-0.0503,-0.0601,-0.0521,-0.0523,-0.0524,-0.0671,-0.0675,-0.0678,0,0,0,0,0,0,-0.0356,-0.0361,-0.0417,-0.0415,-0.0418,-0.0417,-0.0422,-0.044,-0.0467,-0.0447,-0.0449,-0.0454,-0.0491,-0.0498,-0.0502,-0.0529,-0.0519,-0.052,-0.0522,-0.0522,-0.0674,-0.0677,0,0,0,0,0,0,-0.0358,-0.0363,-0.0415,-0.0417,-0.0419,-0.0448,-0.0433,-0.0471,-0.0462,-0.0445,-0.0462,-0.0462,-0.049,-0.0494,-0.05,-0.0526,-0.0528,-0.0519,-0.052,-0.0521,-0.0521,0,0,0,0,0,0,0,-0.036,-0.0326,-0.0402,-0.0418,-0.042,-0.0442,-0.0443,-0.0443,-0.0462,-0.0462,-0.0462,-0.0462,-0.0509,-0.0511,-0.0513,-0.0524,0,0,-0.0519,-0.0519,0,0,0,0,0,0,0,0,-0.0325,-0.0326,-0.0402,-0.0403,-0.0403,-0.0442,-0.0443,-0.0443,-0.0462,-0.0462,-0.0462,-0.0462,-0.051,-0.0511,-0.0513,0,0,0,0,0,0,0,0,0,0,0,0,0,0,0,-0.0402,-0.0403,0,-0.0442,-0.0443,-0.0443,-0.0462,-0.0462,-0.0462,-0.0462,-0.051,-0.0511,-0.0513,0,0,0,0,0,0,0,0,0,0,0,0,0,0,0,0,0,0,0,0,0,0,0,0,0,0,0,0,0,0,0,0,0,0,0,0,0,0,0,0,0,0,0,0,0,0,0,0,0,0,0,0,0,0,0,0,0,0,0,0,0,0,0,0,0,0,0,0,0]}]]]